TimePDT,TemperatureF,Dew PointF,Humidity,Sea Level PressureIn,VisibilityMPH,Wind Direction,Wind SpeedMPH,Gust SpeedMPH,PrecipitationIn,Events,Conditions,WindDirDegrees,DateUTC
12:51 AM,48.0,39.0,71,30.22,10.0,Calm,Calm,-,N/A,,Clear,0,2013-04-19 07:51:00
1:51 AM,46.0,37.0,71,30.22,10.0,Calm,Calm,-,N/A,,Clear,0,2013-04-19 08:51:00
2:51 AM,43.0,36.0,76,30.21,10.0,South,4.6,-,N/A,,Clear,170,2013-04-19 09:51:00
3:51 AM,43.0,37.0,80,30.19,10.0,SSE,4.6,-,N/A,,Clear,160,2013-04-19 10:51:00
4:51 AM,43.0,36.0,76,30.19,10.0,Calm,Calm,-,N/A,,Clear,0,2013-04-19 11:51:00
5:51 AM,42.1,36.0,79,30.19,10.0,Calm,Calm,-,N/A,,Clear,0,2013-04-19 12:51:00
6:51 AM,43.0,36.0,76,30.22,10.0,Calm,Calm,-,N/A,,Clear,0,2013-04-19 13:51:00
7:51 AM,50.0,39.0,66,30.22,10.0,Calm,Calm,-,N/A,,Clear,0,2013-04-19 14:51:00
8:51 AM,60.1,33.1,36,30.22,10.0,NW,3.5,-,N/A,,Clear,320,2013-04-19 15:51:00
9:51 AM,66.0,34.0,30,30.21,10.0,Calm,Calm,-,N/A,,Clear,0,2013-04-19 16:51:00
10:51 AM,71.1,42.1,35,30.18,10.0,West,3.5,-,N/A,,Clear,270,2013-04-19 17:51:00
11:51 AM,75.9,37.9,25,30.16,10.0,NW,15.0,-,N/A,,Clear,310,2013-04-19 18:51:00
12:51 PM,77.0,39.0,25,30.14,10.0,WNW,19.6,24.2,N/A,,Clear,300,2013-04-19 19:51:00
1:51 PM,72.0,44.1,37,30.12,8.0,WNW,19.6,28.8,N/A,,Clear,300,2013-04-19 20:51:00
2:51 PM,73.0,39.0,29,30.10,10.0,WNW,19.6,28.8,N/A,,Clear,300,2013-04-19 21:51:00
3:51 PM,71.1,39.9,32,30.09,10.0,WNW,19.6,26.5,N/A,,Clear,300,2013-04-19 22:51:00
4:51 PM,71.1,41.0,34,30.07,10.0,WNW,19.6,-,N/A,,Clear,300,2013-04-19 23:51:00
5:51 PM,63.0,46.9,56,30.06,8.0,WNW,12.7,-,N/A,,Clear,300,2013-04-20 00:51:00
6:51 PM,61.0,45.0,56,30.06,9.0,WNW,6.9,-,N/A,,Clear,300,2013-04-20 01:51:00
7:51 PM,55.9,45.0,67,30.06,9.0,Calm,Calm,-,N/A,,Clear,0,2013-04-20 02:51:00
8:51 PM,54.0,46.0,75,30.07,8.0,NNW,3.5,-,N/A,,Clear,330,2013-04-20 03:51:00
9:51 PM,52.0,46.0,80,30.08,8.0,Calm,Calm,-,N/A,,Clear,0,2013-04-20 04:51:00
10:51 PM,51.1,45.0,80,30.07,8.0,Calm,Calm,-,N/A,,Clear,0,2013-04-20 05:51:00
11:51 PM,52.0,44.1,74,30.08,9.0,Calm,Calm,-,N/A,,Clear,0,2013-04-20 06:51:00